Time,TemperatureF,DewpointF,PressureIn,WindDirection,WindDirectionDegrees,WindSpeedMPH,WindSpeedGustMPH,Humidity,HourlyPrecipIn,Conditions,Clouds,dailyrainin,SoftwareType,DateUTC
2013-09-22 00:01:00,53.7,53.7,26.55,West,264,0.0,0.0,100,0.00,,,-99.99,VWS V12.07,2013-09-22 04:01:00,
2013-09-22 00:31:00,52.5,52.5,26.56,West,273,0.0,0.0,100,0.00,,,-99.99,VWS V12.07,2013-09-22 04:31:00,
2013-09-22 01:01:00,52.5,52.5,26.56,SW,225,0.0,0.0,100,0.00,,,-99.99,VWS V12.07,2013-09-22 05:01:00,
2013-09-22 01:31:00,53.4,53.4,26.56,SSW,211,0.0,0.0,100,0.00,,,-99.99,VWS V12.07,2013-09-22 05:31:00,
2013-09-22 02:01:00,53.1,53.1,26.56,SW,226,0.0,0.0,100,0.00,,,-99.99,VWS V12.07,2013-09-22 06:01:00,
2013-09-22 02:31:00,52.0,52.0,26.56,SSW,207,0.0,0.0,100,0.00,,,-99.99,VWS V12.07,2013-09-22 06:31:00,
2013-09-22 03:01:00,52.0,52.0,26.56,SSW,203,0.0,0.0,100,0.00,,,-99.99,VWS V12.07,2013-09-22 07:01:00,
2013-09-22 03:31:00,51.7,51.7,26.57,SSW,204,0.0,0.0,100,0.00,,,-99.99,VWS V12.07,2013-09-22 07:31:00,
2013-09-22 04:01:00,50.5,50.5,26.57,SSW,204,0.0,0.0,100,0.00,,,-99.99,VWS V12.07,2013-09-22 08:01:00,
2013-09-22 04:31:00,49.9,49.9,26.58,SSW,198,0.0,0.0,100,0.00,,,-99.99,VWS V12.07,2013-09-22 08:31:00,
2013-09-22 05:01:00,49.6,49.6,26.58,SSW,199,0.0,0.0,100,0.00,,,-99.99,VWS V12.07,2013-09-22 09:01:00,
2013-09-22 05:31:00,49.0,49.0,26.59,SSW,195,0.0,0.0,100,0.01,,,-99.99,VWS V12.07,2013-09-22 09:31:00,
2013-09-22 06:01:00,49.0,49.0,26.59,SW,235,0.0,0.0,100,0.01,,,-99.99,VWS V12.07,2013-09-22 10:01:00,
2013-09-22 06:31:00,47.7,47.7,26.61,SW,234,0.0,0.0,100,0.00,,,-99.99,VWS V12.07,2013-09-22 10:31:00,
2013-09-22 07:01:00,48.0,48.0,26.62,SSW,205,0.0,0.0,100,0.00,,,-99.99,VWS V12.07,2013-09-22 11:01:00,
2013-09-22 07:31:00,51.1,51.1,26.62,SW,232,0.0,0.0,100,0.00,,,-99.99,VWS V12.07,2013-09-22 11:31:00,
2013-09-22 08:01:00,52.2,51.7,26.63,SSW,212,0.0,0.0,98,0.00,,,-99.99,VWS V12.07,2013-09-22 12:01:00,
2013-09-22 08:31:00,54.3,52.9,26.63,WSW,257,0.0,0.0,95,0.00,,,-99.99,VWS V12.07,2013-09-22 12:31:00,
2013-09-22 09:01:00,56.2,53.6,26.64,WNW,282,0.0,0.0,91,0.00,,,-99.99,VWS V12.07,2013-09-22 13:01:00,
2013-09-22 09:31:00,57.4,54.8,26.64,NW,312,0.0,0.0,91,0.00,,,-99.99,VWS V12.07,2013-09-22 13:31:00,
2013-09-22 10:01:00,58.3,54.5,26.65,WNW,282,0.0,0.0,87,0.00,,,-99.99,VWS V12.07,2013-09-22 14:01:00,
2013-09-22 10:31:00,59.2,53.7,26.65,North,350,0.0,0.0,82,0.00,,,-99.99,VWS V12.07,2013-09-22 14:31:00,
2013-09-22 11:01:00,60.6,56.7,26.64,North,1,0.0,0.0,87,0.00,,,-99.99,VWS V12.07,2013-09-22 15:01:00,
2013-09-22 11:31:00,61.4,56.2,26.64,North,0,0.0,0.0,83,0.00,,,-99.99,VWS V12.07,2013-09-22 15:31:00,
2013-09-22 12:01:00,62.5,57.3,26.64,WNW,300,0.0,0.0,83,0.00,,,-99.99,VWS V12.07,2013-09-22 16:01:00,
2013-09-22 12:31:00,64.0,58.1,26.64,NW,306,0.0,0.0,81,0.00,,,-99.99,VWS V12.07,2013-09-22 16:31:00,
2013-09-22 13:01:00,63.0,56.4,26.63,NW,313,0.0,0.0,79,0.00,,,-99.99,VWS V12.07,2013-09-22 17:01:00,
2013-09-22 13:31:00,66.2,59.5,26.63,WSW,254,0.0,0.0,79,0.00,,,-99.99,VWS V12.07,2013-09-22 17:31:00,
2013-09-22 14:01:00,64.8,57.8,26.62,WNW,282,0.0,0.0,78,0.00,,,-99.99,VWS V12.07,2013-09-22 18:01:00,
2013-09-22 14:31:00,64.9,57.5,26.63,SSW,200,0.0,0.0,77,0.00,,,-99.99,VWS V12.07,2013-09-22 18:31:00,
2013-09-22 15:01:00,65.4,57.7,26.63,WNW,287,0.0,0.0,76,0.00,,,-99.99,VWS V12.07,2013-09-22 19:01:00,
2013-09-22 15:31:00,64.4,57.0,26.63,WNW,300,0.0,0.0,77,0.00,,,-99.99,VWS V12.07,2013-09-22 19:31:00,
2013-09-22 16:01:00,64.1,56.8,26.63,SSW,201,0.0,0.0,77,0.00,,,-99.99,VWS V12.07,2013-09-22 20:01:00,
2013-09-22 16:31:00,64.4,57.0,26.64,South,190,0.0,0.0,77,0.00,,,-99.99,VWS V12.07,2013-09-22 20:31:00,
2013-09-22 17:01:00,63.4,56.8,26.64,SSW,202,0.0,0.0,79,0.00,,,-99.99,VWS V12.07,2013-09-22 21:01:00,
2013-09-22 17:31:00,60.0,55.2,26.66,South,190,0.0,0.0,84,0.00,,,-99.99,VWS V12.07,2013-09-22 21:31:00,
2013-09-22 18:31:00,55.5,53.8,26.66,South,190,0.0,0.0,94,0.00,,,-99.99,VWS V12.07,2013-09-22 22:31:00,
2013-09-22 19:01:00,54.2,53.1,26.66,South,190,0.0,0.0,96,0.00,,,-99.99,VWS V12.07,2013-09-22 23:01:00,
2013-09-22 19:31:00,53.3,53.3,26.67,South,190,0.0,0.0,100,0.00,,,-99.99,VWS V12.07,2013-09-22 23:31:00,
2013-09-22 20:01:00,52.5,52.5,26.68,South,190,0.0,0.0,100,0.00,,,-99.99,VWS V12.07,2013-09-23 00:01:00,
2013-09-22 20:31:00,51.8,51.8,26.69,South,190,0.0,0.0,100,0.00,,,-99.99,VWS V12.07,2013-09-23 00:31:00,
2013-09-22 21:01:00,51.4,51.4,26.69,South,190,0.0,0.0,100,0.00,,,-99.99,VWS V12.07,2013-09-23 01:01:00,
2013-09-22 21:31:00,51.4,51.4,26.70,South,190,0.0,0.0,100,0.00,,,-99.99,VWS V12.07,2013-09-23 01:31:00,
2013-09-22 22:01:00,51.1,51.1,26.70,South,190,0.0,0.0,100,0.00,,,-99.99,VWS V12.07,2013-09-23 02:01:00,
2013-09-22 22:31:00,50.3,50.3,26.70,South,190,0.0,0.0,100,0.00,,,-99.99,VWS V12.07,2013-09-23 02:31:00,
2013-09-22 23:01:00,49.3,49.3,26.71,South,190,0.0,0.0,100,0.00,,,-99.99,VWS V12.07,2013-09-23 03:01:00,
2013-09-22 23:31:00,49.2,49.2,26.71,South,190,0.0,0.0,100,0.00,,,-99.99,VWS V12.07,2013-09-23 03:31:00,